GFSSE_sfc_30mbdewp_159.txt.gz
Dewpoint
69 72 73 72 72 72 72 72 72 72 73 73 72 72 72 72 72 73 73 73 72 72 72 73 72 72 70 69 70 70 72 71 71 69 70 72 73 72 73 72 72 72 72
70 72 73 73 72 72 73 73 73 73 73 73 73 73 72 72 72 73 73 73 73 73 72 73 72 73 70 70 69 69 70 70 69 71 71 72 72 72 72 72 72 72 72
71 72 73 73 73 73 73 73 73 73 72 72 73 72 72 73 73 73 72 73 73 73 72 72 72 72 72 71 70 70 70 70 69 69 71 71 72 73 72 70 71 71 71
71 72 73 73 73 73 73 72 72 72 72 72 72 73 72 72 73 73 73 72 72 72 73 72 72 72 71 70 69 69 69 71 71 72 71 71 72 72 72 72 72 71 72
71 72 72 73 72 72 72 72 72 71 71 73 73 72 72 73 72 72 72 73 72 72 72 73 72 71 71 72 70 70 71 71 71 70 70 71 71 72 72 72 71 71 71
70 71 72 72 72 72 72 72 72 71 70 73 73 72 72 73 72 72 73 73 72 71 70 69 70 70 70 68 67 68 69 70 72 70 70 71 71 72 72 71 71 71 71
70 71 72 72 72 72 72 71 71 71 71 72 72 72 72 72 72 73 72 72 71 71 71 71 71 71 71 70 70 71 71 72 67 70 70 71 71 73 72 72 72 71 71
70 71 72 71 72 72 72 71 69 70 72 73 73 72 72 72 73 72 72 72 72 71 72 72 71 72 71 71 69 70 72 71 68 69 69 70 72 72 70 69 70 69 69
70 70 70 71 71 71 71 71 71 71 72 73 73 72 73 73 73 72 72 71 71 72 71 72 72 71 71 71 71 72 72 73 67 68 69 71 74 72 70 70 70 69 70
69 69 69 70 70 71 71 71 71 71 72 73 72 72 73 72 73 72 73 72 71 71 71 71 71 71 71 71 71 71 72 73 68 69 69 70 72 71 70 72 71 71 71
67 68 67 68 70 70 70 71 71 71 72 72 72 72 73 72 73 72 73 72 72 72 71 72 72 72 72 72 72 71 71 71 71 69 70 70 72 71 70 71 69 69 69
66 66 66 66 68 69 71 71 71 71 69 69 72 72 71 72 72 72 72 72 71 71 72 72 72 72 72 71 70 70 68 69 70 70 68 71 73 71 69 70 70 69 70
66 66 65 66 67 68 70 70 70 69 69 71 71 72 71 70 70 72 72 72 72 72 72 71 70 69 69 70 69 68 67 67 69 69 68 68 72 70 70 70 70 70 71
65 65 65 66 66 68 69 69 69 68 69 69 69 69 69 68 69 70 70 70 70 70 69 68 68 68 67 67 67 67 67 67 68 67 67 68 71 71 71 70 70 71 71
64 64 65 66 67 67 67 67 67 67 67 67 68 69 70 69 68 68 67 67 67 68 68 68 68 68 68 67 67 66 65 65 67 66 67 70 71 73 72 71 72 72 72
63 63 65 65 66 67 66 65 65 64 64 65 68 69 67 66 66 66 65 66 67 68 69 67 68 69 67 68 67 60 62 65 65 64 65 66 73 73 72 73 73 73 73
62 63 65 65 65 65 65 64 63 62 63 64 67 68 68 68 67 67 67 67 68 67 68 66 68 67 67 64 63 59 62 63 63 62 62 64 69 73 71 72 72 72 72
62 63 65 64 65 64 65 64 63 63 64 66 67 67 67 68 69 69 68 67 67 66 67 66 66 66 63 61 61 62 62 62 61 61 61 62 66 68 71 72 69 71 73
63 63 65 65 64 64 64 67 65 63 66 68 67 67 67 66 69 66 59 62 67 69 67 64 66 67 67 62 62 61 63 63 63 64 65 65 66 67 65 65 68 68 72
63 63 64 65 65 64 64 66 67 67 67 68 68 67 67 64 67 66 66 65 67 69 67 61 63 67 69 65 62 62 63 60 62 64 66 67 68 67 68 68 67 68 70
62 63 63 63 65 65 64 64 65 66 66 66 66 66 66 67 67 67 67 68 68 69 68 65 68 66 65 67 63 59 59 64 62 59 64 64 63 65 68 68 68 68 70
60 62 63 63 64 64 64 66 66 65 64 65 65 66 66 68 68 70 69 66 66 69 68 68 67 65 66 67 64 62 57 57 61 60 63 64 65 66 67 65 67 68 68
60 62 64 65 64 63 65 66 66 66 65 65 65 65 66 66 68 69 69 66 67 69 67 68 68 67 65 68 67 63 59 58 61 62 64 64 65 65 65 65 66 68 70
61 64 65 66 65 65 66 65 65 63 63 64 64 65 65 66 66 68 68 68 68 67 69 67 70 69 67 64 67 68 66 63 61 60 61 62 64 66 66 66 66 68 70
61 64 65 65 65 65 66 65 64 63 64 65 66 65 66 65 66 67 67 66 69 67 67 67 68 68 69 68 67 67 66 66 63 61 58 59 63 66 68 68 66 68 69
61 63 64 64 64 66 65 65 64 63 63 65 65 65 65 66 65 67 68 67 66 69 68 67 67 69 69 69 69 68 66 64 64 62 61 62 62 64 68 70 69 69 70

GFSSE_sfc_30mbdewp_162.txt.gz
Dewpoint
68 72 73 73 73 72 72 72 72 73 73 72 73 72 72 72 72 72 73 72 72 72 72 72 72 70 69 70 71 70 69 71 70 70 72 72 72 73 72 72 72 71 71
70 72 74 73 72 72 72 72 72 73 73 73 73 72 72 73 73 73 73 73 72 72 72 72 72 70 70 70 70 71 71 70 71 71 72 72 72 72 73 72 72 72 72
71 73 74 72 73 73 73 73 73 73 73 73 73 73 73 73 73 73 72 73 72 72 72 72 72 71 70 70 70 70 70 70 70 71 71 72 72 71 71 72 72 72 72
71 72 73 73 73 73 73 72 73 72 72 73 73 72 72 73 73 73 72 72 72 72 72 72 71 69 70 69 69 69 70 71 71 72 71 71 72 72 72 71 70 71 70
71 72 72 73 73 73 73 73 73 72 72 73 73 72 73 73 72 72 72 72 72 72 72 71 71 70 70 70 70 71 71 72 71 71 71 71 72 72 72 72 72 72 71
71 72 73 73 73 73 73 72 72 72 71 73 73 72 72 73 72 72 73 72 73 72 71 70 70 70 69 69 69 69 69 70 71 70 70 72 72 72 72 72 71 71 71
70 71 72 72 72 72 72 73 72 70 72 73 73 72 73 72 72 72 72 71 70 70 70 70 70 70 69 69 70 70 71 73 70 70 70 72 71 72 72 71 71 71 71
70 71 71 72 72 72 72 72 72 70 72 72 73 73 72 72 73 72 72 71 71 71 71 71 71 71 71 70 69 70 72 71 69 70 70 71 71 73 72 72 72 71 71
71 71 71 71 72 72 72 70 70 71 72 73 73 73 72 73 73 72 72 72 71 71 71 71 71 71 71 71 72 72 72 71 69 70 69 70 72 70 69 69 69 69 69
70 70 69 70 71 71 71 71 71 71 73 73 73 73 73 73 72 73 73 71 72 71 71 71 71 72 71 71 71 71 72 74 67 67 68 69 72 72 68 68 71 71 70
68 68 69 69 70 70 70 72 71 72 72 73 72 72 72 73 72 73 73 71 71 71 71 72 72 72 73 73 72 71 71 71 72 69 69 68 71 72 70 69 69 71 69
66 67 67 69 69 70 71 71 71 71 70 71 72 72 72 72 72 72 72 72 72 72 72 73 73 73 72 71 70 70 69 67 69 71 70 70 70 71 70 70 69 70 70
66 66 66 66 68 69 70 71 70 69 70 71 72 71 71 70 70 72 72 72 72 72 71 70 70 69 68 68 68 68 68 68 68 69 69 70 71 71 69 68 71 70 70
65 66 66 66 67 68 70 69 70 69 69 69 70 70 70 69 69 71 71 70 70 69 69 68 67 68 68 68 68 68 67 67 68 69 69 70 71 71 70 71 70 71 71
65 65 65 66 66 67 68 69 69 68 67 68 68 68 69 69 68 69 69 67 67 68 68 67 68 68 69 68 68 68 66 66 67 68 67 69 71 71 70 72 72 72 72
64 64 65 65 66 67 67 67 67 66 66 66 67 69 69 69 66 66 65 66 66 68 68 69 67 69 68 68 68 67 62 65 66 66 67 68 71 72 71 73 72 73 73
63 63 64 65 66 66 66 65 65 64 64 64 66 68 68 66 67 66 66 66 67 69 69 67 67 67 66 63 64 62 62 64 64 64 65 65 67 73 72 72 72 73 73
63 63 64 65 65 66 65 64 64 63 62 63 66 68 67 68 69 68 67 67 68 65 67 66 67 66 65 62 62 62 63 63 63 63 62 62 64 66 71 72 73 73 71
63 63 64 65 64 65 65 65 63 63 63 65 67 67 67 67 69 68 61 64 65 70 67 64 65 66 68 65 62 62 62 64 64 64 65 64 64 66 67 66 69 70 70
63 63 64 65 64 64 64 66 66 65 65 67 69 68 66 65 68 65 63 64 66 69 66 61 63 67 69 64 62 62 63 63 62 62 66 67 68 67 68 68 69 69 71
63 63 64 64 64 64 64 64 65 63 65 67 67 67 67 66 65 67 67 68 68 69 68 65 68 67 65 68 63 61 61 63 63 60 63 65 65 66 67 69 69 70 70
62 63 63 63 64 64 64 64 65 65 66 65 66 66 67 67 67 68 68 68 67 69 68 68 67 65 66 68 63 61 58 58 61 61 65 64 65 67 67 67 68 69 69
61 62 62 62 63 64 64 65 66 66 65 65 65 65 66 66 68 69 69 68 66 69 67 68 68 67 65 67 67 63 61 59 61 62 65 65 65 66 67 67 67 68 70
60 61 62 63 62 63 64 64 64 64 62 63 64 65 65 66 66 68 69 68 67 67 68 67 70 68 67 64 67 68 65 63 62 61 62 61 65 67 69 69 67 68 71
59 60 62 64 64 63 63 63 64 64 64 64 65 65 65 65 66 66 68 68 68 68 68 68 69 69 68 68 67 67 66 66 64 62 60 61 64 65 69 70 67 68 71
58 61 63 65 65 65 64 64 63 64 64 64 65 65 65 66 66 66 67 67 67 68 68 68 68 69 69 69 69 68 67 64 65 63 62 63 63 63 66 70 71 70 71

GFSSE_sfc_30mbdewp_165.txt.gz
Dewpoint
69 71 73 73 72 72 72 72 73 72 72 73 72 72 71 71 72 72 73 72 72 73 73 72 71 70 71 71 71 69 71 71 71 72 72 72 72 72 72 72 72 69 71
70 72 74 73 72 72 72 72 73 73 73 73 72 72 72 72 73 73 73 72 72 72 72 71 70 70 70 71 71 70 71 71 71 72 72 73 72 73 73 72 70 70 71
69 71 73 74 73 73 72 72 73 73 73 73 72 72 72 72 73 73 72 72 72 72 72 72 71 70 70 71 71 71 70 71 71 71 72 69 69 72 72 72 72 72 72
69 71 71 74 74 73 72 73 72 73 73 73 73 73 73 73 72 72 72 72 72 72 72 71 70 70 70 70 70 70 71 71 71 71 68 69 69 72 70 71 72 72 72
69 70 71 73 71 73 72 73 72 73 73 73 73 72 73 73 73 73 72 72 72 72 72 71 70 70 70 70 71 72 72 72 71 68 69 70 68 71 72 72 71 71 70
70 70 73 73 73 73 73 73 72 72 73 73 72 73 73 72 72 72 72 72 72 72 71 71 71 70 70 70 70 69 69 70 71 69 68 70 70 72 72 72 71 71 72
70 71 71 73 73 73 73 73 72 72 72 71 72 73 73 72 72 72 72 72 71 71 71 71 70 69 69 69 70 70 72 73 71 70 69 68 70 72 71 71 71 71 71
69 69 71 72 73 73 73 72 72 71 72 73 72 73 72 73 72 72 71 70 70 70 70 70 70 70 70 70 70 70 73 71 68 69 70 67 70 71 71 71 71 71 71
69 70 71 71 72 73 73 72 72 71 72 72 73 72 72 73 72 72 71 71 71 71 70 71 71 71 71 71 72 72 72 70 68 69 69 66 71 68 66 69 69 70 69
69 70 69 72 71 72 72 70 70 72 72 73 73 72 73 73 72 72 72 71 71 71 71 71 71 72 72 71 71 71 71 73 67 67 68 66 70 72 68 68 69 71 71
68 68 68 69 70 72 72 72 71 72 71 71 73 72 72 71 71 71 72 71 71 71 71 72 72 73 73 73 72 71 71 66 67 68 68 69 70 72 70 69 69 69 69
65 67 67 67 68 70 71 72 72 70 71 73 74 73 74 73 72 70 71 72 72 72 73 73 72 71 69 66 65 69 66 66 66 67 68 69 70 70 70 70 70 70 71
64 65 67 68 69 69 71 71 70 70 71 72 73 72 72 72 72 70 69 70 71 71 68 67 66 65 67 67 67 66 67 68 66 66 67 71 71 70 69 69 71 72 70
64 65 66 67 69 70 71 71 69 70 70 71 71 72 71 69 69 70 68 69 69 67 67 67 67 69 69 69 68 68 67 65 65 66 68 71 72 72 70 71 69 69 71
64 65 65 66 68 69 69 67 69 69 68 70 70 70 70 68 68 69 68 67 66 67 68 68 69 70 69 68 68 68 67 64 65 65 67 71 72 72 71 70 72 73 72
65 65 65 66 66 68 69 66 67 69 67 69 68 70 71 69 69 68 67 66 66 68 69 69 68 70 68 66 66 68 64 64 67 68 66 67 72 72 71 70 72 73 73
64 65 65 65 65 67 68 67 67 68 66 68 67 70 69 69 68 70 67 67 68 70 70 69 69 68 66 64 64 65 63 64 64 66 66 65 65 71 72 71 73 73 73
63 64 65 64 65 66 66 67 67 66 65 65 66 69 69 70 70 70 69 68 70 68 69 66 67 67 68 65 63 64 64 64 65 64 64 64 63 62 68 72 73 73 72
63 64 65 65 65 66 67 66 66 65 65 64 67 68 69 69 71 70 67 66 69 71 69 67 66 68 68 66 62 63 63 63 64 63 66 66 66 65 64 66 68 69 71
63 64 65 65 66 67 66 66 65 64 64 65 68 69 69 68 70 68 67 68 69 71 67 64 68 68 68 67 63 61 63 63 63 63 62 64 67 67 66 68 68 67 69
63 64 65 65 66 66 65 64 64 64 65 66 67 70 70 68 68 70 68 70 70 70 70 69 69 67 64 69 66 62 63 62 60 63 65 62 63 64 66 68 69 69 70
62 63 64 65 66 66 65 65 65 65 66 66 67 68 69 69 68 68 70 69 69 70 71 71 70 66 66 69 65 64 59 58 63 63 65 64 65 66 65 67 68 70 71
62 63 64 65 65 66 65 65 67 67 66 66 66 66 67 69 69 69 70 71 69 71 69 70 70 70 64 66 69 65 59 57 62 64 64 64 67 67 68 69 67 68 72
61 63 64 65 65 65 66 64 63 61 60 65 65 66 67 68 68 69 70 71 70 68 70 70 70 70 70 65 66 67 69 68 64 57 62 63 65 65 69 67 67 68 71
61 62 63 65 65 64 65 65 64 63 63 64 64 67 68 69 69 68 69 70 71 69 69 70 71 71 69 67 67 65 67 67 68 65 59 59 61 64 66 68 67 67 70
61 61 62 64 65 64 65 65 65 63 64 64 64 64 66 66 67 68 68 69 69 69 70 70 70 70 70 69 67 70 67 65 63 66 63 62 61 62 63 68 69 69 70

GFSSE_sfc_30mbdewp_168.txt.gz
Dewpoint
65 72 73 72 72 73 73 72 72 73 73 72 72 72 72 72 72 73 72 72 72 73 72 71 71 71 71 71 70 71 71 72 72 72 73 72 72 72 72 72 71 68 70
64 70 74 73 72 72 73 73 73 72 73 72 72 71 72 72 72 73 73 72 72 73 71 71 71 71 72 71 70 71 71 72 72 72 73 73 72 72 72 72 71 70 70
63 69 71 73 73 72 72 73 72 73 73 72 72 72 72 73 73 72 73 72 72 72 71 71 71 71 71 71 71 71 72 72 72 72 71 67 68 73 72 72 71 72 71
63 67 69 74 74 72 72 73 73 73 73 73 73 73 73 73 73 72 73 72 73 72 72 71 71 71 71 71 71 71 72 71 71 71 66 64 64 71 72 73 72 72 72
63 64 72 74 74 72 73 73 72 73 73 73 73 73 73 73 73 72 72 73 72 72 71 71 71 70 71 71 71 72 72 71 71 68 63 64 62 71 71 71 71 72 72
64 63 73 71 73 73 73 73 73 73 73 72 72 73 73 73 72 72 72 73 72 72 72 71 71 71 71 70 70 69 70 71 71 64 63 65 68 71 72 72 71 71 70
64 64 68 72 71 72 73 73 72 72 73 69 72 73 72 72 72 72 72 72 71 71 71 71 70 69 69 70 70 70 73 73 68 67 63 64 66 71 72 71 71 71 71
66 67 69 72 73 73 73 73 72 72 71 73 73 73 73 72 72 72 71 70 71 71 71 71 70 70 70 70 70 71 73 70 68 66 65 64 69 71 70 70 70 70 71
66 68 69 69 69 71 72 72 71 71 71 73 72 73 73 72 72 71 71 70 70 70 70 70 71 71 71 70 71 71 73 71 67 67 65 62 69 66 66 70 70 71 70
66 68 67 69 68 69 72 71 71 71 69 73 73 72 73 72 72 72 71 71 70 71 71 71 71 71 72 72 71 71 71 72 63 65 65 65 69 72 67 69 69 71 70
65 64 65 67 70 72 71 70 70 72 71 72 71 71 72 68 69 67 71 71 71 71 71 71 72 73 73 72 72 71 70 63 62 64 65 68 67 70 70 69 69 69 69
61 63 64 65 66 67 68 70 70 71 72 72 70 70 72 70 67 64 69 71 71 72 72 72 72 70 69 63 65 70 65 63 64 63 63 69 69 69 69 70 71 71 70
59 61 63 65 66 67 68 68 67 69 71 73 70 71 71 68 64 63 65 66 66 70 66 67 67 64 65 64 63 63 63 63 61 62 67 69 71 71 70 70 70 71 71
60 61 63 65 66 66 67 67 69 69 70 70 71 70 69 66 65 64 63 64 66 64 65 66 65 67 67 66 64 64 63 61 60 60 66 69 72 72 72 71 71 70 70
61 63 64 65 67 68 68 68 69 67 70 70 70 70 66 64 64 64 64 63 64 65 66 67 67 66 66 64 63 63 62 60 62 61 62 70 72 73 73 72 71 72 72
62 63 62 64 67 68 67 68 69 69 67 69 68 67 69 64 64 62 63 63 65 66 67 67 66 67 65 62 62 64 63 60 63 64 62 66 71 73 73 72 71 71 73
62 63 64 64 65 67 67 67 67 68 65 66 67 70 70 66 68 66 64 65 65 68 69 67 67 65 63 61 61 59 60 60 60 63 63 63 66 71 72 72 71 73 73
61 63 65 64 63 64 66 67 66 65 65 67 66 67 67 68 70 70 66 65 67 67 65 64 64 63 62 61 60 59 59 60 62 62 62 63 62 62 70 72 73 74 73
61 63 64 63 62 63 65 66 67 66 65 66 66 66 69 69 70 68 66 65 68 67 65 63 63 65 63 60 58 58 60 60 60 59 62 64 64 64 62 69 68 69 71
61 63 63 64 64 65 67 65 64 64 64 64 64 65 68 67 69 68 65 67 68 66 64 63 67 65 66 64 59 57 59 59 60 60 61 61 63 65 64 66 68 69 69
60 62 63 64 65 67 65 64 62 62 65 63 64 68 69 68 69 70 65 68 68 67 68 66 65 64 61 64 62 57 58 58 59 61 62 62 62 63 64 65 68 67 70
60 62 63 64 66 66 65 63 63 64 65 62 64 68 69 68 68 68 68 66 68 66 69 69 68 63 62 65 61 60 57 56 57 59 62 62 64 63 64 65 67 70 70
59 62 64 64 65 66 64 65 67 66 67 62 65 68 66 68 68 68 68 69 69 69 65 67 66 67 61 61 66 62 58 53 56 57 61 61 65 64 65 66 67 67 71
59 62 63 65 65 66 65 64 64 64 59 64 63 66 64 68 68 67 67 69 70 66 67 66 67 67 67 60 60 61 65 66 60 56 56 59 60 61 66 63 64 67 70
59 61 62 65 65 64 66 64 65 62 59 61 61 63 67 67 68 66 67 68 69 68 66 68 67 68 65 64 61 59 59 60 63 63 57 56 57 56 59 63 64 64 68
58 61 62 65 66 64 66 65 65 63 61 61 62 63 63 64 66 68 67 68 68 67 68 68 68 68 68 66 64 62 60 57 58 58 57 56 56 57 57 61 64 64 67

GFSSE_sfc_30mbdewp_171.txt.gz
Dewpoint
67 69 71 71 72 73 72 72 72 73 73 72 73 72 72 72 72 72 72 72 73 72 71 71 71 71 71 71 71 72 72 72 72 73 72 72 72 72 73 71 69 67 72
67 69 74 72 73 73 73 72 72 73 73 73 72 71 72 72 73 72 71 73 73 71 71 71 72 72 71 71 71 71 72 72 72 73 73 72 72 72 72 71 64 66 70
64 69 72 73 73 73 73 72 72 72 72 72 72 72 72 72 73 73 72 72 72 71 71 71 71 72 71 71 71 72 72 72 72 71 72 69 68 73 72 72 70 70 71
64 68 69 74 73 73 73 72 72 72 72 73 72 72 73 72 72 73 72 72 72 72 71 71 71 71 71 71 72 72 71 71 71 71 71 66 64 72 73 72 72 71 71
63 68 70 73 74 73 73 74 74 73 73 73 73 72 72 72 72 72 72 72 72 71 71 71 71 71 70 71 72 72 71 70 70 69 61 65 71 70 71 72 72 72 71
60 66 73 74 73 73 73 73 72 73 72 72 72 72 72 72 72 72 72 72 72 71 72 71 71 71 71 71 70 69 71 72 71 63 61 63 69 71 71 71 70 70 71
61 65 71 74 73 73 74 73 73 73 71 68 72 72 72 72 72 72 72 72 71 71 71 71 70 69 69 70 70 70 73 73 69 64 62 64 67 71 71 71 71 70 70
65 67 67 70 71 73 73 72 72 71 72 72 72 72 72 72 72 72 72 71 71 71 71 70 69 70 70 69 70 71 72 71 67 64 63 63 69 70 70 71 70 71 71
65 66 67 67 72 71 73 71 71 70 71 72 71 72 72 72 71 71 70 70 70 71 70 70 69 70 70 70 70 70 71 72 68 64 65 62 67 67 69 70 70 70 70
66 65 67 67 68 71 70 71 70 69 69 70 72 72 72 72 71 71 71 70 70 70 70 70 70 70 70 70 70 70 70 72 70 65 62 65 69 70 68 71 70 70 69
66 64 63 67 70 72 72 70 69 69 69 70 71 72 71 66 68 68 71 70 71 71 71 71 70 70 71 71 72 71 71 67 70 60 65 66 69 70 67 68 68 69 68
63 64 67 67 69 70 71 70 70 69 68 72 70 69 70 69 65 64 69 71 71 71 71 71 71 71 71 66 69 72 68 60 58 56 67 69 68 69 70 71 72 70 69
63 64 65 67 68 67 70 70 67 68 69 72 70 72 70 67 63 59 63 65 64 69 68 69 69 68 65 62 60 70 64 59 63 66 67 68 70 71 71 70 70 70 70
58 61 65 65 67 66 68 65 66 68 71 69 69 70 71 64 59 59 59 62 64 63 64 64 64 65 64 64 63 57 57 54 55 61 68 69 70 72 73 72 71 71 70
58 61 64 65 67 67 66 66 68 68 70 68 70 68 69 63 60 60 60 62 63 60 63 63 63 65 64 65 61 59 58 59 60 60 67 68 69 72 73 73 72 72 72
61 62 64 65 67 68 68 67 66 68 68 67 69 69 66 65 62 60 62 62 62 61 61 63 64 64 62 58 59 60 59 58 62 62 64 68 69 71 73 73 73 71 71
62 63 61 65 66 67 68 68 67 69 64 66 69 69 69 66 64 62 61 61 61 64 66 64 64 62 63 58 59 58 58 56 59 61 61 62 68 70 71 72 72 72 72
63 63 63 63 64 65 66 68 66 67 67 68 64 65 66 66 64 68 62 62 64 64 60 59 58 57 59 58 56 55 55 56 60 60 62 62 61 63 70 71 72 72 73
61 65 65 64 63 65 68 66 67 65 65 64 66 67 65 65 65 68 61 62 66 61 60 59 60 60 61 58 54 56 58 58 57 61 60 62 62 62 63 70 71 71 71
59 61 63 64 65 66 68 67 65 64 63 64 66 64 67 65 64 68 61 65 66 60 66 62 64 65 61 65 56 52 52 57 57 60 57 60 62 64 63 66 68 70 70
59 61 62 62 66 66 66 65 64 64 64 64 61 63 67 67 65 68 61 65 65 64 69 65 65 64 61 68 62 65 62 58 60 58 57 61 62 61 62 66 71 70 65
59 61 62 62 67 67 67 66 65 64 63 63 61 66 67 67 67 67 68 64 65 63 67 67 66 64 62 65 57 56 61 64 62 58 55 61 62 67 66 65 66 69 70
59 61 63 63 66 67 68 67 66 67 65 63 62 65 67 68 67 68 67 68 68 68 69 67 66 65 62 63 63 59 58 59 57 58 57 57 60 68 64 65 66 70 70
57 61 63 64 65 66 67 65 66 64 63 61 62 63 64 67 67 66 67 67 69 66 70 65 64 66 66 61 59 60 63 63 57 53 56 61 56 62 62 62 66 71 70
57 60 63 65 66 67 68 65 65 64 61 59 60 64 64 67 67 67 66 67 68 68 66 67 67 67 67 62 59 56 58 59 63 59 55 59 59 57 57 64 66 70 70
56 59 62 65 67 67 67 66 66 66 63 58 59 62 64 62 66 67 66 67 68 68 67 66 67 67 67 68 66 63 57 56 55 56 55 54 53 53 58 55 64 65 67